Preview of NWS' New Version of Forecast
This preview is not operational and should not be used for support decisions.

Regional Weather Roundup (RWR)

Issued by Philadelphia/Mt Holly (PHI)

                            
000
ASUS41 KPHI 230212
RWRPHI

REGIONAL WEATHER ROUNDUP
NATIONAL WEATHER SERVICE MOUNT HOLLY NJ
1000 PM EDT FRI MAR 22 2019

NOTE:  "FAIR" INDICATES FEW OR NO CLOUDS BELOW 12,000 FEET WITH NO
SIGNIFICANT WEATHER AND/OR OBSTRUCTIONS TO VISIBILITY.

 * = STATION DOES NOT REPORT PRECIPITATION (E.G. RAIN, SNOW, ETC.) 
        OR FOG.

NJZ015>026-230300-
SOUTHERN NEW JERSEY
  
CITY           SKY/WX    TMP DP  RH WIND       PRES   REMARKS
POMONA         FAIR      40  33  76 W14       29.63R WCI  32          
WILDWOOD*      FAIR      44  30  57 NW16G28   29.69                   
MILLVILLE      FAIR      42  27  55 W20G31    29.67R                  
WRIGHTSTOWN    MOCLDY    40  31  70 W21G30    29.59R WCI  31          
MOUNT HOLLY    CLOUDY    42  30  62 W14G25    29.63R                  
TRENTON        FAIR      38  32  79 W8G21     29.59R WCI  32          

$$
NJZ001>014-230300-
NORTHERN NEW JERSEY
  
CITY           SKY/WX    TMP DP  RH WIND       PRES   REMARKS
SUSSEX         LGT RAIN  39  30  70 VRB7G26   29.53R WCI  34          
ANDOVER*         N/A     37  29  72 VRB7      29.55R WCI  32          
MORRISTOWN     PTCLDY    39  32  75 W15G26    29.54R WCI  31          
NEWARK         FAIR      42  29  59 W17G29    29.53R                  
TETERBORO      FAIR      42  29  59 W10G22    29.50R                  
CALDWELL       MOCLDY    41  29  62 W14G22    29.53R                  
SOMERVILLE     MOCLDY    41  30  65 NW9G17    29.55R                  
ALLAIRE*       FAIR      40  32  73 W15G29    29.56R WCI  32          
TOMS RIVER*    FAIR      40  32  73 W20G31    29.59R WCI  30          

$$
PAZ043-044-047-054-055-060>062-066>071-230300-
EASTERN PENNSYLVANIA
  
CITY           SKY/WX    TMP DP  RH WIND       PRES   REMARKS
PHILADELPHIA   MOCLDY    43  29  57 W18G32    29.66R                  
NORTH PHILA    FAIR      41  30  65 W10G28    29.64R                  
BLUE BELL*     FAIR      37  30  75 W13G24    29.65R WCI  29          
DOYLESTOWN     FAIR      38  29  70 W15G30    29.61R WCI  29          
QUAKERTOWN*    PTCLDY    37  30  75 W10G18    29.63R WCI  30          
PERKASIE*      CLOUDY    37  32  81 W15G23    29.63R WCI  28          
POTTSTOWN      CLOUDY    38  29  70 W9        29.66R WCI  31          
LANCASTER      CLOUDY    41  26  55 NW22G41   29.70R                  
COATESVILLE    CLOUDY    37  27  65 W24G32    29.69R WCI  26          
READING        CLOUDY    40  28  62 NW20G31   29.66R WCI  30          
ALLENTOWN      CLOUDY    40  28  62 NW14G30   29.62R WCI  32          
MOUNT POCONO   MIX PCPN  30  26  85 W23G35    29.51R WCI  17          
HAZLETON       CLOUDY    34  23  64 W16G28    29.63R WCI  23          
LEHIGHTON      CLOUDY    37  27  65 W10G18    29.64R WCI  30          
WILKES BARRE   CLOUDY    34  25  69 W18G28    29.61R WCI  23          

$$
DEZALL-MDZ008-012-015-019-020-230300-
DELAWARE AND EASTERN MARYLAND
  
CITY           SKY/WX    TMP DP  RH WIND       PRES   REMARKS
WILMINGTON     FAIR      42  26  53 NW28G36   29.69R                  
GEORGETOWN     FAIR      46  26  45 NW12G32   29.72R                  
EASTON         FAIR      43  25  49 W16G35    29.82R                  
PATUXENT       FAIR      44  25  47 NW22G38   29.80R                  
OCEAN CITY     FAIR      42  32  67 W12G21    29.74R                  
WALLOPS ISLAND MOCLDY    45  31  58 NW12G23   29.78R                  
CAMBRIDGE      PTCLDY    43  27  52 NW14G30   29.79R                  
SALISBURY      FAIR      42  30  62 W16G24    29.75R                  

$$
PAZ001-021-NYZ056-072-MDZ011-DCZ001-230300-
OTHER NEARBY LOCATIONS
  
CITY           SKY/WX    TMP DP  RH WIND       PRES   REMARKS
HARRISBURG     MOCLDY    40  24  53 NW28G36   29.74R WCI  29          
STATE COLLEGE  PTCLDY    32  21  64 NW15G36   29.78R WCI  22          
WILLIAMSPORT   CLOUDY    37  21  52 W17G26    29.70R WCI  27          
BINGHAMTON     LGT SNOW  27  23  85 NW14G29   29.57R FOG     WCI  16  
NEW YORK CITY  FAIR      43  28  55 W15G29    29.52R                  
BALTIMORE      FAIR      41  23  48 W25G37    29.76R                  
WASHINGTON DC  FAIR      44  23  43 NW15G23   29.82R                  

$$